Weather History for EGUN - October, 2012

Change the Weather History Date:

Wednesday, October 17, 2012

  Actual Average (EGSC) Record (EGSC)
Temperature  
Mean Temperature 53 °F -  
Max Temperature 62 °F 57 °F 66 °F (1997)
Min Temperature 44 °F 45 °F 33 °F (1996)
Degree Days  
Heating Degree Days 12    
Growing Degree Days 3 (Base 50)    
Moisture  
Dew Point 51 °F    
Average Humidity 94    
Maximum Humidity 100    
Minimum Humidity 60    
Precipitation  
Precipitation 0.17 in - - ()
Sea Level Pressure  
Sea Level Pressure 29.42 in    
Wind  
Wind Speed 14 mph ()    
Max Wind Speed 24 mph    
Max Gust Speed 33 mph    
Visibility 6.2 miles    
Events Rain    
Averages and records for this station are not official NWS values.
T = Trace of Precipitation, MM = Missing Value Source: Averaged Metar Reports

Daily Weather History Graph

Daily Weather History Graph

Search for Another Location

Airport or City:

Trip Planner

Search our weather history database for the weather conditions in past years. The results will help you decide how hot, cold, wet, or windy it might be!

Date:

Astronomy

Oct. 17, 2012 Rise Set
Actual Time 7:27 AM BST 5:58 PM BST
Civil Twilight 6:52 AM BST 6:32 PM BST
Nautical Twilight 6:13 AM BST 7:12 PM BST
Astronomical Twilight 5:33 AM BST 7:51 PM BST
Moon 10:06 AM BST (10/17) 6:56 PM BST (10/17)
Length of Visible Light 11h 40m
Length of Day
10h 30m
Waxing Crescent, 6% of the Moon is Illuminated
Oct 17
Waxing Crescent
Oct 22
First Quarter
Oct 29
Full
Nov 7
Last Quarter
Nov 13
New

Hourly Weather History & Observations

Time (BST) Temp. Windchill Dew Point Humidity Pressure Visibility Wind Dir Wind Speed Gust Speed Precip Events Conditions
12:58 AM 44.6 °F 39.7 °F 44.1 °F 98% 29.62 in 6.2 mi SE 9.2 mph - N/A   Clear
1:58 AM 44.4 °F 39.5 °F 44.4 °F 100% 29.58 in 6.2 mi SE 9.2 mph - N/A   Clear
2:58 AM 46.0 °F 41.4 °F 46.0 °F 100% 29.56 in 6.2 mi ESE 9.2 mph - N/A   Partly Cloudy
3:58 AM 49.3 °F - 48.9 °F 99% 29.51 in 6.2 mi ESE 9.2 mph - N/A   Partly Cloudy
4:06 AM 50.0 °F - 50.0 °F 100% 29.49 in 6.2 mi ESE 10.4 mph - N/A Rain Light Rain
4:13 AM 50.0 °F - 50.0 °F 100% 29.49 in 6.2 mi ESE 11.5 mph - N/A Rain Light Rain
4:22 AM 50.0 °F - 50.0 °F 100% 29.48 in 6.2 mi ESE 12.7 mph - N/A Rain Light Rain
4:58 AM 50.9 °F - 50.9 °F 100% 29.45 in 6.2 mi SE 16.1 mph 27.6 mph 0.03 in Rain Light Rain
5:18 AM 51.8 °F - 51.8 °F 100% 29.43 in 6.2 mi SE 17.3 mph 24.2 mph N/A Rain Light Rain
5:47 AM 50.0 °F - 50.0 °F 100% 29.41 in 6.2 mi SE 16.1 mph - N/A Rain Light Rain
5:57 AM 50.0 °F - 50.0 °F 100% 29.40 in 6.2 mi SE 19.6 mph 24.2 mph N/A Rain Light Rain
5:58 AM 50.7 °F - 50.7 °F 100% 29.41 in 6.2 mi SE 18.4 mph 24.2 mph 0.04 in Rain Light Rain
6:15 AM 50.0 °F - 50.0 °F 100% 29.38 in 6.2 mi SE 17.3 mph 25.3 mph N/A Rain Light Rain
6:50 AM 50.0 °F - 50.0 °F 100% 29.36 in 6.2 mi SE 18.4 mph 26.5 mph N/A Rain Light Rain
6:56 AM 50.0 °F - 50.0 °F 100% 29.36 in 6.2 mi SSE 19.6 mph 28.8 mph N/A Rain Light Rain
6:58 AM 50.5 °F - 50.5 °F 100% 29.36 in 6.2 mi SE 21.9 mph 28.8 mph 0.03 in Rain Light Rain
7:07 AM 50.0 °F - 50.0 °F 100% 29.35 in 6.2 mi SE 23.0 mph 27.6 mph N/A Rain Light Rain
7:17 AM 51.8 °F - 51.8 °F 100% 29.34 in 5.6 mi SE 19.6 mph 33.4 mph N/A Rain Light Rain
7:35 AM 51.8 °F - 51.8 °F 100% 29.34 in 6.2 mi SSE 20.7 mph 31.1 mph N/A Rain Light Rain
7:37 AM 51.8 °F - 51.8 °F 100% 29.34 in 6.2 mi SSE 19.6 mph 31.1 mph N/A Rain Light Rain
7:39 AM 51.8 °F - 51.8 °F 100% 29.34 in 6.2 mi SE 21.9 mph 31.1 mph N/A Rain Light Rain
7:42 AM 51.8 °F - 51.8 °F 100% 29.33 in 6.2 mi SSE 21.9 mph 31.1 mph N/A Rain Light Rain
7:43 AM 51.8 °F - 51.8 °F 100% 29.33 in 6.2 mi SSE 23.0 mph 31.1 mph N/A   Overcast
7:44 AM 51.8 °F - 51.8 °F 100% 29.34 in 6.2 mi SSE 24.2 mph 31.1 mph N/A   Overcast
7:45 AM 51.8 °F - 51.8 °F 100% 29.34 in 6.2 mi SSE 20.7 mph 31.1 mph N/A   Overcast
7:48 AM 51.8 °F - 51.8 °F 100% 29.35 in 6.2 mi SSE 17.3 mph 31.1 mph N/A   Overcast
7:49 AM 51.8 °F - 51.8 °F 100% 29.35 in 6.2 mi SSE 17.3 mph 31.1 mph N/A   Overcast
7:50 AM 51.8 °F - 51.8 °F 100% 29.35 in 6.2 mi SSE 17.3 mph 31.1 mph N/A   Overcast
7:51 AM 51.8 °F - 51.8 °F 100% 29.36 in 6.2 mi South 17.3 mph 29.9 mph N/A   Overcast
7:52 AM 51.8 °F - 51.8 °F 100% 29.36 in 6.2 mi SSE 18.4 mph 29.9 mph N/A Rain Light Rain
7:54 AM 51.8 °F - 51.8 °F 100% 29.35 in 6.2 mi SSE 17.3 mph 29.9 mph N/A Rain Light Rain
7:58 AM 52.2 °F - 52.2 °F 100% 29.37 in 5.6 mi South 16.1 mph - 0.04 in Rain Light Rain
8:00 AM 51.8 °F - 51.8 °F 100% 29.36 in 5.6 mi South 16.1 mph - N/A Rain Light Rain
8:03 AM 51.8 °F - 51.8 °F 100% 29.36 in 6.2 mi South 16.1 mph - N/A Rain Light Rain
8:04 AM 51.8 °F - 51.8 °F 100% 29.36 in 6.2 mi South 16.1 mph - N/A Rain Light Rain
8:07 AM 51.8 °F - 51.8 °F 100% 29.36 in 6.2 mi South 17.3 mph - N/A Rain Light Rain
8:08 AM 51.8 °F - 51.8 °F 100% 29.36 in 6.2 mi South 17.3 mph - N/A Rain Light Rain
8:12 AM 53.6 °F - 53.6 °F 100% 29.36 in 6.2 mi South 16.1 mph 24.2 mph N/A Rain Light Rain
8:15 AM 53.6 °F - 53.6 °F 100% 29.36 in 6.2 mi South 17.3 mph 24.2 mph N/A Rain Light Rain
8:16 AM 53.6 °F - 53.6 °F 100% 29.36 in 6.2 mi South 19.6 mph 25.3 mph N/A   Mostly Cloudy
8:17 AM 53.6 °F - 53.6 °F 100% 29.36 in 6.2 mi South 18.4 mph 25.3 mph N/A   Mostly Cloudy
8:19 AM 53.6 °F - 53.6 °F 100% 29.36 in 6.2 mi South 17.3 mph 25.3 mph N/A   Mostly Cloudy
8:58 AM 54.3 °F - 54.3 °F 100% 29.39 in 6.2 mi South 16.1 mph 23.0 mph 0.01 in   Clear
9:58 AM 56.8 °F - 54.7 °F 92% 29.42 in 6.2 mi SSW 15.0 mph 25.3 mph N/A   Clear
10:58 AM 58.8 °F - 53.6 °F 83% 29.44 in 6.2 mi SSW 15.0 mph 26.5 mph N/A   Clear
11:58 AM 60.8 °F - 52.5 °F 74% 29.45 in 6.2 mi SSW 21.9 mph 27.6 mph N/A   Scattered Clouds
12:58 PM 61.7 °F - 50.5 °F 67% 29.46 in 6.2 mi SSW 16.1 mph - N/A   Partly Cloudy
1:44 PM 60.8 °F - 50.0 °F 68% 29.46 in 6.2 mi SW 12.7 mph 21.9 mph N/A   Mostly Cloudy
1:51 PM 60.8 °F - 50.0 °F 68% 29.46 in 6.2 mi SW 12.7 mph - N/A   Scattered Clouds
1:58 PM 61.7 °F - 50.2 °F 66% 29.46 in 6.2 mi SW 18.4 mph 20.7 mph N/A   Scattered Clouds
2:58 PM 62.2 °F - 48.0 °F 60% 29.48 in 6.2 mi SSW 17.3 mph 25.3 mph N/A   Partly Cloudy
3:58 PM 61.3 °F - 48.7 °F 63% 29.47 in 6.2 mi SSW 12.7 mph 23.0 mph N/A   Partly Cloudy
4:58 PM 59.5 °F - 47.3 °F 64% 29.48 in 6.2 mi South 12.7 mph - N/A   Clear
5:58 PM 57.0 °F - 48.7 °F 74% 29.49 in 6.2 mi South 9.2 mph - N/A   Clear
6:58 PM 56.5 °F - 47.5 °F 72% 29.51 in 6.2 mi SSE 8.1 mph - N/A   Clear
7:58 PM 55.2 °F - 50.4 °F 84% 29.51 in 6.2 mi SSE 10.4 mph - N/A   Partly Cloudy
8:56 PM 57.2 °F - 53.6 °F 88% 29.50 in 6.2 mi SSE 13.8 mph - N/A Rain Light Rain
8:58 PM 57.2 °F - 53.6 °F 88% 29.51 in 6.2 mi South 13.8 mph - N/A Rain Light Rain
9:47 PM 55.4 °F - 53.6 °F 94% 29.51 in 6.2 mi SSE 13.8 mph - N/A   Overcast
9:58 PM 55.0 °F - 53.6 °F 95% 29.52 in 6.2 mi SSE 10.4 mph - 0.00 in   Mostly Cloudy
10:08 PM 55.4 °F - 53.6 °F 94% 29.51 in 6.2 mi SE 10.4 mph - N/A Rain Light Rain
10:12 PM 55.4 °F - 53.6 °F 94% 29.51 in 6.2 mi SE 9.2 mph - N/A Rain Light Rain
10:14 PM 53.6 °F - 53.6 °F 100% 29.51 in 6.2 mi SE 8.1 mph - N/A Rain Light Rain
10:30 PM 53.6 °F - 53.6 °F 100% 29.51 in 6.2 mi SSE 10.4 mph - N/A   Mostly Cloudy
10:58 PM 54.3 °F - 54.3 °F 100% 29.51 in 6.2 mi SE 11.5 mph - 0.02 in   Scattered Clouds
11:58 PM 54.1 °F - 54.1 °F 100% 29.51 in 6.2 mi SE 10.4 mph - N/A   Scattered Clouds